EW0844 Weather Reports


time (UTC)temp
C
wind
direction
speed
KPH
gust
KPH
rain 1hr
cm
rain 24hr
cm
rain mn
cm
humidity
%
barometer
mb
20260509160413 19 33 6.4 12.9 0.00 0.00 0.00 46 1015.2
20260509154912 20 359 3.2 16.1 0.00 0.00 0.00 45 1015.2
20260509153413 20 66 4.8 11.3 0.00 0.00 0.00 44 1015.3
20260509151916 20 11 9.7 16.1 0.00 0.00 0.00 44 1015.6
20260509150413 20 88 4.8 17.7 0.00 0.00 0.00 44 1015.5
20260509144913 20 85 12.9 19.3 0.00 0.00 0.00 45 1015.8
20260509143413 20 58 9.7 17.7 0.00 0.00 0.00 45 1015.7
20260509140413 20 71 6.4 12.9 0.00 0.00 0.00 47 1015.8
20260509134915 19 36 4.8 9.7 0.00 0.00 0.00 48 1015.8
20260509131913 20 81 3.2 8.0 0.00 0.00 0.00 47 1016.1
20260509130413 19 88 3.2 17.7 0.00 0.00 0.00 50 1016.2
20260509124913 19 162 3.2 14.5 0.00 0.00 0.00 49 1016.4
20260509123413 19 74 8.0 16.1 0.00 0.00 0.00 50 1016.5
20260509121912 19 93 14.5 19.3 0.00 0.00 0.00 49 1016.7
20260509113415 18 64 9.7 19.3 0.00 0.00 0.00 50 1017.1
20260509111913 18 58 11.3 16.1 0.00 0.00 0.00 52 1017.3
20260509104916 17 359 4.8 16.1 0.00 0.00 0.00 56 1017.6
20260509103413 17 81 6.4 16.1 0.00 0.00 0.00 61 1017.7
20260509101913 16 99 8.0 12.9 0.00 0.00 0.00 61 1017.8
20260509100413 15 177 1.6 11.3 0.00 0.00 0.00 65 1018.0
20260509094915 14 327 6.4 9.7 0.00 0.00 0.00 71 1017.9
20260509093413 13 48 6.4 11.3 0.00 0.00 0.00 73 1017.9
20260509091912 13 50 4.8 8.0 0.00 0.00 0.00 72 1018.0
20260509090413 13 52 4.8 8.0 0.00 0.00 0.00 73 1018.2
20260509083413 13 330 1.6 4.8 0.00 0.00 0.00 75 1018.5
20260509081913 12 163 1.6 8.0 0.00 0.00 0.00 74 1018.6
20260509080416 12 202 6.4 9.7 0.00 0.00 0.00 75 1018.6
20260509074913 12 233 4.8 8.0 0.00 0.00 0.00 75 1018.6
20260509073412 12 231 3.2 6.4 0.00 0.00 0.00 74 1018.5
20260509070412 12 359 4.8 8.0 0.00 0.00 0.00 73 1018.6
20260509064914 12 238 4.8 8.0 0.00 0.00 0.00 73 1018.5
20260509061912 12 107 3.2 6.4 0.00 0.00 0.00 75 1018.3
20260509060416 11 268 1.6 3.2 0.00 0.00 0.00 75 1018.0
20260509054913 11 112 3.2 4.8 0.00 0.00 0.00 77 1018.0
20260509053413 10 151 1.6 4.8 0.00 0.00 0.00 80 1017.7
20260509051912 10 160 1.6 3.2 0.00 0.00 0.00 82 1017.7
20260509041913 8 88 1.6 3.2 0.00 0.00 0.00 86 1017.1
20260509040414 8 240 1.6 4.8 0.00 0.00 0.00 85 1017.1
20260509034913 8 116 0.0 1.6 0.00 0.00 0.00 84 1017.0
20260509033412 8 360 1.6 3.2 0.00 0.00 0.00 83 1017.0
20260509031913 8 196 1.6 3.2 0.00 0.00 0.00 82 1016.9
20260509030413 8 177 0.0 3.2 0.00 0.00 0.00 83 1016.6
20260509023412 8 359 1.6 3.2 0.00 0.00 0.00 82 1016.6
20260509021912 9 244 1.6 3.2 0.00 0.00 0.00 82 1016.6
20260509020412 9 88 1.6 3.2 0.00 0.00 0.00 83 1016.5
20260509014913 9 249 0.0 1.6 0.00 0.00 0.00 81 1016.5
20260509011912 10 146 1.6 4.8 0.00 0.00 0.00 76 1016.6
20260509010414 10 45 0.0 1.6 0.00 0.00 0.00 76 1016.5
20260509004913 11 359 1.6 3.2 0.00 0.03 0.00 76 1016.6
20260509003413 11 232 0.0 1.6 0.00 0.03 0.00 74 1016.7
20260509000413 11 1 1.6 3.2 0.00 0.03 0.00 72 1016.9
20260508234913 11 45 0.0 1.6 0.00 0.03 0.00 74 1016.9
20260508230413 11 360 0.0 1.6 0.00 0.03 0.00 77 1017.0
20260508223412 11 45 0.0 1.6 0.00 0.03 0.00 74 1017.0
20260508221913 12 178 0.0 3.2 0.00 0.03 0.00 72 1017.0
20260508214913 12 88 1.6 3.2 0.00 0.03 0.03 69 1016.9
20260508213412 12 88 1.6 4.8 0.00 0.03 0.03 68 1016.9
20260508211913 13 81 1.6 6.4 0.00 0.03 0.03 68 1016.8
20260508210414 13 71 1.6 3.2 0.00 0.03 0.03 68 1016.9
20260508203412 13 107 1.6 4.8 0.00 0.03 0.03 68 1016.9
20260508201912 13 78 1.6 6.4 0.00 0.03 0.03 67 1016.8
20260508200413 13 89 3.2 4.8 0.00 0.03 0.03 66 1016.8
20260508194913 14 104 1.6 3.2 0.00 0.03 0.03 65 1016.6
20260508193412 14 80 1.6 4.8 0.00 0.03 0.03 64 1016.4
20260508191912 15 31 3.2 6.4 0.00 0.03 0.03 63 1016.3
20260508184912 15 97 3.2 6.4 0.00 0.03 0.03 61 1016.1
20260508183412 16 313 1.6 6.4 0.00 0.03 0.03 59 1015.9
20260508181912 16 80 1.6 6.4 0.00 0.03 0.03 58 1015.6
20260508180413 16 52 4.8 11.3 0.00 0.03 0.03 57 1015.5
20260508174914 17 67 3.2 11.3 0.00 0.23 0.03 56 1015.5
20260508173414 17 71 4.8 9.7 0.00 0.23 0.03 55 1015.5
20260508170412 17 32 6.4 11.3 0.00 0.23 0.03 52 1015.2
20260508161913 18 97 12.9 20.9 0.00 0.28 0.03 51 1015.1